Weather History for Gage, OK

Change the Weather History Date:

Wednesday, April 3, 2013

  Actual Average Record
Temperature  
Mean Temperature 33 °F -  
Max Temperature 34 °F 64 °F 98 °F (2011)
Min Temperature 32 °F 36 °F 17 °F (1975)
Degree Days  
Heating Degree Days 32    
Moisture  
Dew Point 31 °F    
Average Humidity 93    
Maximum Humidity 100    
Minimum Humidity 82    
Precipitation  
Precipitation 0.03 in - - ()
Sea Level Pressure  
Sea Level Pressure 30.23 in    
Wind  
Wind Speed 11 mph (NE)    
Max Wind Speed 17 mph    
Max Gust Speed 24 mph    
Visibility 5 miles    
Events Fog , Rain , Snow    
Averages and records for this station are not official NWS values.
T = Trace of Precipitation, MM = Missing Value Source: NWS Daily Summary

Daily Weather History Graph

Daily Weather History Graph

Search for Another Location

Airport:

Trip Planner

Search our weather history database for the weather conditions in past years. The results will help you decide how hot, cold, wet, or windy it might be!

Date:

Astronomy

Apr. 03, 2013 Rise Set
Actual Time 7:21 AM CDT 8:03 PM CDT
Civil Twilight 6:55 AM CDT 8:29 PM CDT
Nautical Twilight 6:25 AM CDT 8:59 PM CDT
Astronomical Twilight 5:53 AM CDT 9:31 PM CDT
Moon 2:53 AM CDT (4/3) 1:27 PM CDT (4/3)
Length of Visible Light 13h 33m
Length of Day
12h 41m
Last Quarter, 44% of the Moon is Illuminated
Apr 3
Last Quarter
Apr 10
New
Apr 18
First Quarter
Apr 25
Full
May 2
Last Quarter

Hourly Weather History & Observations

Time (CDT) Temp. Windchill Dew Point Humidity Pressure Visibility Wind Dir Wind Speed Gust Speed Precip Events Conditions
12:53 AM 34.0 °F 26.6 °F 30.9 °F 89% 30.26 in 7.0 mi NNE 9.2 mph - N/A   Overcast
1:43 AM 33.8 °F 25.8 °F 30.2 °F 87% 30.20 in 4.0 mi NNE 10.4 mph - 0.00 in Rain Light Rain
1:53 AM 33.1 °F 25.5 °F 30.9 °F 92% 30.23 in 5.0 mi NNE 9.2 mph - 0.00 in Rain Light Rain
2:24 AM 33.8 °F 25.8 °F 32.0 °F 93% 30.17 in 10.0 mi NE 10.4 mph - 0.00 in   Overcast
2:53 AM 34.0 °F 26.6 °F 30.9 °F 89% 30.22 in 10.0 mi NE 9.2 mph - 0.00 in   Overcast
3:53 AM 34.0 °F 25.5 °F 30.0 °F 85% 30.20 in 10.0 mi NE 11.5 mph - N/A   Overcast
4:53 AM 34.0 °F 26.0 °F 28.9 °F 82% 30.21 in 10.0 mi ENE 10.4 mph 19.6 mph N/A   Overcast
5:53 AM 34.0 °F 25.0 °F 30.0 °F 85% 30.22 in 10.0 mi NNE 12.7 mph 20.7 mph N/A   Overcast
6:53 AM 34.0 °F 24.6 °F 30.9 °F 89% 30.21 in 7.0 mi NNE 13.8 mph - N/A   Overcast
7:16 AM 33.8 °F 25.3 °F 32.0 °F 93% 30.19 in 4.0 mi NNE 11.5 mph - 0.00 in Rain Light Rain
7:35 AM 33.8 °F 26.4 °F 32.0 °F 93% 30.19 in 3.0 mi NNE 9.2 mph - 0.00 in Rain Light Rain
7:45 AM 33.8 °F 25.8 °F 32.0 °F 93% 30.20 in 3.0 mi NNE 10.4 mph - 0.00 in Rain Light Rain
7:53 AM 33.1 °F 24.4 °F 33.1 °F 100% 30.25 in 2.5 mi NNE 11.5 mph - 0.00 in Rain Light Rain
8:53 AM 33.1 °F 23.0 °F 32.0 °F 96% 30.26 in 2.0 mi NE 15.0 mph - 0.00 in Rain Light Rain
9:36 AM 33.8 °F 23.5 °F 32.0 °F 93% 30.22 in 3.0 mi NE 16.1 mph 23.0 mph 0.00 in Rain Light Rain
9:53 AM 33.1 °F 22.2 °F 32.0 °F 96% 30.26 in 4.0 mi NE 17.3 mph 24.2 mph 0.00 in   Overcast
10:17 AM 33.8 °F 23.9 °F 32.0 °F 93% 30.23 in 2.5 mi NE 15.0 mph - 0.00 in Rain Light Rain
10:53 AM 32.0 °F 21.6 °F 30.9 °F 96% 30.28 in 2.0 mi NNE 15.0 mph - 0.02 in   Overcast
11:17 AM 32.0 °F 24.2 °F 32.0 °F 100% 30.25 in 1.2 mi NE 9.2 mph - N/A Snow Light Snow
11:33 AM 32.0 °F 23.0 °F 32.0 °F 100% 30.25 in 0.5 mi NE 11.5 mph - N/A Fog , Snow Snow
11:53 AM 32.0 °F 23.0 °F 32.0 °F 100% 30.28 in 0.2 mi NNE 11.5 mph - N/A Fog , Snow Snow
12:25 PM 33.8 °F 25.8 °F 32.0 °F 93% 30.23 in 0.8 mi NE 10.4 mph - 0.00 in Snow Light Snow
12:37 PM 33.8 °F 25.3 °F 32.0 °F 93% 30.24 in 1.2 mi NE 11.5 mph - 0.00 in Snow Light Snow
12:53 PM 34.0 °F 25.5 °F 33.1 °F 96% 30.28 in 2.5 mi NE 11.5 mph - 0.00 in Snow Light Snow
1:02 PM 33.8 °F 25.3 °F 33.8 °F 100% 30.23 in 3.0 mi NE 11.5 mph - 0.00 in Snow Light Snow
1:27 PM 33.8 °F 24.8 °F 32.0 °F 93% 30.23 in 4.0 mi NNE 12.7 mph - 0.00 in Rain Light Freezing Rain
1:53 PM 33.1 °F 23.9 °F 32.0 °F 96% 30.27 in 5.0 mi NE 12.7 mph - 0.00 in   Overcast
1:57 PM 33.8 °F 24.8 °F 32.0 °F 93% 30.22 in 5.0 mi NE 12.7 mph - 0.00 in Rain Light Freezing Rain
2:13 PM 33.8 °F 24.3 °F 32.0 °F 93% 30.21 in 5.0 mi NE 13.8 mph - 0.00 in Snow Light Snow
2:25 PM 33.8 °F 24.8 °F 32.0 °F 93% 30.20 in 6.0 mi NNE 12.7 mph - 0.00 in Rain Light Freezing Rain
2:53 PM 33.1 °F 23.4 °F 30.9 °F 92% 30.26 in 10.0 mi NE 13.8 mph - 0.00 in   Overcast
3:01 PM 33.8 °F 24.8 °F 30.2 °F 87% 30.21 in 10.0 mi NE 12.7 mph - 0.00 in Rain Light Freezing Rain
3:19 PM 33.8 °F 23.5 °F 30.2 °F 87% 30.21 in 7.0 mi ENE 16.1 mph - 0.01 in Snow Light Snow
3:34 PM 33.8 °F 24.3 °F 30.2 °F 87% 30.20 in 9.0 mi NE 13.8 mph - 0.01 in Rain Light Freezing Rain
3:42 PM 33.8 °F 23.9 °F 30.2 °F 87% 30.21 in 6.0 mi NE 15.0 mph - 0.01 in Rain Light Freezing Rain
3:53 PM 33.1 °F 23.4 °F 30.9 °F 92% 30.24 in 6.0 mi NE 13.8 mph - 0.01 in Rain Light Freezing Rain
4:35 PM 33.8 °F 24.8 °F 32.0 °F 93% 30.19 in 9.0 mi NE 12.7 mph - 0.00 in   Overcast
4:53 PM 33.1 °F 23.9 °F 30.9 °F 92% 30.23 in 10.0 mi ENE 12.7 mph - 0.00 in   Overcast
5:53 PM 33.1 °F 25.5 °F 30.9 °F 92% 30.23 in 10.0 mi ENE 9.2 mph - N/A   Overcast
6:53 PM 33.1 °F 25.5 °F 30.9 °F 92% 30.24 in 9.0 mi NE 9.2 mph - N/A   Overcast
7:53 PM 33.1 °F 25.5 °F 30.0 °F 89% 30.25 in 10.0 mi NE 9.2 mph - N/A   Overcast
8:14 PM 32.0 °F 25.6 °F 30.2 °F 93% 30.21 in 3.0 mi NNE 6.9 mph - 0.00 in Rain Light Freezing Rain
8:53 PM 32.0 °F 26.4 °F 32.0 °F 100% 30.27 in 2.0 mi NNE 5.8 mph - 0.00 in Rain Light Freezing Rain
9:02 PM 32.0 °F 27.5 °F 30.2 °F 93% 30.22 in 2.0 mi NNE 4.6 mph - 0.00 in Rain Light Freezing Rain
9:38 PM 32.0 °F 26.4 °F 32.0 °F 100% 30.23 in 3.0 mi NNE 5.8 mph - 0.00 in Rain Light Freezing Rain
9:51 PM 32.0 °F 24.8 °F 30.2 °F 93% 30.23 in 3.0 mi NNE 8.1 mph - 0.00 in Rain Light Freezing Rain
9:53 PM 32.0 °F 24.8 °F 30.9 °F 96% 30.28 in 4.0 mi NE 8.1 mph - 0.00 in Rain Light Freezing Rain
10:43 PM 32.0 °F 26.4 °F 32.0 °F 100% 30.23 in 7.0 mi NNE 5.8 mph - 0.00 in Rain Light Freezing Rain
10:53 PM 32.0 °F 26.4 °F 32.0 °F 100% 30.28 in 8.0 mi North 5.8 mph - 0.00 in   Overcast
11:53 PM 32.0 °F 27.5 °F 32.0 °F 100% 30.27 in 9.0 mi NNE 4.6 mph - N/A   Overcast